Tracking 31011 objects as of 13-Jul-2025
HD Live streaming from Space Station
objects crossing your sky now

STARLINK-31269

Track STARLINK-31269 now!
10-day predictions
STARLINK-31269 is classified as:


NORAD ID: 58844
Int'l Code: 2024-017U
Perigee: 480.4 km
Apogee: 484.3 km
Inclination: 53.2 °
Period: 94.1 minutes
Semi major axis: 6853 km
RCS: Unknown
Launch date: January 24, 2024
Source: United States (US)
Launch site: AIR FORCE WESTERN TEST RANGE (AFWTR)
Your satellite tracking list
Your tracking list is empty




NASA's NSSDC Master Catalog

Two Line Element Set (TLE):
1 58844U 24017U   25193.75283101 -.00000640  00000-0 -94384-5 0  9995
2 58844  53.1597 328.9365 0002859  83.5353 276.5973 15.30202620 82031
Source of the keplerian elements: AFSPC